Regional Weather Roundup
Issued by NWS

Home | Current Version | Previous Version | Graphics & Text | Print | Product List | Glossary On
Versions: 1 2 3 4 5 6 7 8 9 10 11 12 13 14 15 16 17 18 19 20 21 22 23 24 25 26 27 28 29 30 31 32 33 34 35 36 37 38 39 40 41 42 43 44 45 46 47 48 49 50
000
ASUS43 KDTX 171310
RWRMI
MICHIGAN HOURLY REGIONAL WEATHER ROUNDUP
NATIONAL WEATHER SERVICE DETROIT/PONTIAC MI
900 AM EDT THU AUG 17 2017

NOTE: "FAIR" INDICATES FEW OR NO CLOUDS BELOW 12,000 FEET WITH NO
SIGNIFICANT WEATHER AND/OR OBSTRUCTION TO VISIBILITY.

MIZ047>049-052>055-059>063-066>070-074>076-081>083-171400-
SOUTHEAST LOWER MICHIGAN

CITY           SKY/WX    TMP DP  RH WIND       PRES   REMARKS
ADRIAN         CLOUDY    71  69  93 S3        29.90S FOG
ALMA           CLOUDY    69  67  94 S8        29.84S FOG
ANN ARBOR      CLOUDY    71  70  96 MISG      29.89S FOG
BAD AXE        LGT RAIN  67  63  85 SE7       29.90S
CARO           DRIZZLE   66  63  89 SE6       29.88F
DETROIT CITY   CLOUDY    70  70 100 SE6       29.89F FOG
DETROIT        LGT RAIN  73  71  93 SE5       29.90F FOG
FLINT          MOSUNNY   69  67  93 SE8       29.87F
GROSSE ILE     CLOUDY    73  71  92 SE6       29.89S
HILLSDALE      CLOUDY    72  70  94 S6        29.88S FOG
HOWELL         CLOUDY    69  68  95 SE6       29.88S FOG

CITY           SKY/WX    TMP DP  RH WIND       PRES   REMARKS
JACKSON        CLOUDY    72  69  90 SE8       29.87S
LAMBERTVILLE   CLOUDY    72  70  95 S3        29.88F FOG
LANSING        CLOUDY    72  68  87 SE10      29.85F
LAPEER         HVY RAIN  66  65  96 SE6       29.90F
MASON          CLOUDY    72  68  88 SE7       29.87S FOG
MONROE         CLOUDY    73  71  94 SE3       29.88F FOG
MT. CLEMENS    LGT RAIN  70  70 100 SE7       29.89F
PONTIAC        CLOUDY    70  69  97 SE8       29.88F
PORT HOPE        N/A     70  64  81 SE10G21   29.88S
PORT HURON     LGT RAIN  70  64  83 S8        29.93R
TRI CITIES     CLOUDY    69  68  96 SE12      29.86S
MIDLAND        CLOUDY    69  67  92 SE8       29.83F
TROY           CLOUDY    70  68  95 CALM      29.91F FOG
SAGINAW HB     PTSUNNY   68  64  88 SE9       29.85F
$$
MIZ043>046-050>051-056>058-064>065-071>073-077>080-171400-
SOUTHWEST LOWER MICHIGAN

CITY           SKY/WX    TMP DP  RH WIND       PRES   REMARKS
BATTLE CREEK   CLOUDY    74  72  93 S12       29.84F
BENTON HARBOR  CLOUDY    76  68  76 S8        29.81S
BIG RAPIDS     CLOUDY    68  65  91 SE7       29.81S
COLDWATER      MOSUNNY   75  73  94 S6        29.86S
FREMONT        CLOUDY    71  71 100 S5        29.79S
HOLLAND        PTSUNNY   74  71  91 S7        29.80S
GRAND RAPIDS   CLOUDY    73  71  93 S8        29.81F
IONIA          PTSUNNY   71  69  95 S5        29.82F
KALAMAZOO      PTSUNNY   75  70  84 S13       29.83S
LUDINGTON      RAIN      70  68  92 SW12G31   29.75F
MARSHALL       CLOUDY    73  73  98 S7        29.85S
MOUNT PLEASANT CLOUDY    70  67  91 S5        29.83S
MUSKEGON       CLOUDY    75  72  90 S14       29.78F
SOUTH HAVEN    CLOUDY    75  72  88 S7        29.81R
$$
MIZ016>042-171400-
NORTHERN LOWER MICHIGAN

CITY           SKY/WX    TMP DP  RH WIND       PRES   REMARKS
ALPENA         RAIN      67  67 100 SE12      29.89S FOG
BEAVER ISLAND  CLOUDY    66  65  96 SE13G23   29.75F
BELLAIRE       CLOUDY    68  63  84 S8G16     29.77F
CADILLAC       CLOUDY    67  64  89 SE8       29.81S
CHARLEVOIX     CLOUDY    66  66 100 SE12G18   29.79F
FRANKFORT      LGT RAIN  70  70 100 SE8       29.75R
GAYLORD        CLOUDY    63  60  90 SE15G21   29.83F
GRAYLING       CLOUDY    64  61  91 SE7       29.84F
HARBOR SPRINGS CLOUDY    64  63  94 E8        29.79F
HOUGHTON LAKE  CLOUDY    65  63  93 SE12      29.84F
OSCODA         LGT RAIN  67  64  89 SE6       29.88S
PELLSTON       LGT RAIN  65  63  93 SE9       29.81F
ROGERS CITY    RAIN      66  64  91 SE13      29.87S
TRAVERSE CITY  CLOUDY    68  63  84 S8        29.75S
$$
MIZ007>008-015-171400-
EASTERN UPPER MICHIGAN

CITY           SKY/WX    TMP DP  RH WIND       PRES   REMARKS
KINROSS        LGT RAIN  62  61  96 E15       29.84F
MACKINAC ISLAN RAIN      65  65 100 SE9G16    29.83S
NEWBERRY       LGT RAIN  63  62  97 E16       29.78F
S. S. MARIE    LGT RAIN  62  58  86 E9        29.86F
MUNISING         N/A     65  65 100 SE8       29.71F
$$
MIZ004>006-011>014-085-171400-
CENTRAL UPPER MICHIGAN

CITY           SKY/WX    TMP DP  RH WIND       PRES   REMARKS
MANISTIQUE     RAIN      64  58  80 SE12G22   29.74F
ESCANABA       CLOUDY    68  67  96 SE9       29.68F
MENOMINEE      LGT RAIN  71  70  96 S10       29.66F FOG
SAWYER-GWINN   CLOUDY    63  63 100 E12       29.71F FOG
$$
MIZ001>003-009>011-084-171400-
WESTERN UPPER MICHIGAN

CITY           SKY/WX    TMP DP  RH WIND       PRES   REMARKS
IRON MOUNTAIN  CLOUDY    67  65  93 SE7       29.66F FOG
HOUGHTON       RAIN      62  60  93 E13       29.69S FOG
COPPER HARBOR    N/A     62  60  93 S9        29.71F
IRONWOOD       CLOUDY    64  62  93 E8        29.62F
$$

ABBREVIATIONS USED IN REMARKS
   TC - TEMPERATURE IN CELSIUS
  WCI - WIND CHILL INDEX
   HX - HEAT INDEX
  VSB - VISIBILITY




USA.gov is the U.S. government's official web portal to all federal, state and local government web resources and services.